When you browse on this site, cookies collect data to enhance your experience and personalize the content and advertising you see.
Visit our Privacy Policy to learn more. By continuing to use the site, you agree to this use of cookies and data.

Météo par heure à Vljora

Ce jour, 26 Septembre, Samedi

Heure Température Précipitation Vent Pression Humidité
00:00 +24°C° 1.1 mm 10 m/s 751 mmHg 79%
01:00 +24°C° 0 mm 9 m/s 751 mmHg 77%
02:00 +24°C° 1 mm 9 m/s 750 mmHg 79%
03:00 +23°C° 1 mm 8 m/s 750 mmHg 81%
04:00 +23°C° 1 mm 8 m/s 750 mmHg 82%
05:00 +22°C° 0.4 mm 7 m/s 750 mmHg 80%
06:00 +22°C° 0.4 mm 6 m/s 750 mmHg 77%
07:00 +21°C° 0.4 mm 6 m/s 750 mmHg 74%
08:00 +21°C° 0.7 mm 7 m/s 750 mmHg 70%
09:00 +22°C° 0.7 mm 9 m/s 750 mmHg 66%
10:00 +22°C° 0.7 mm 10 m/s 751 mmHg 61%
11:00 +21°C° 0.5 mm 10 m/s 751 mmHg 63%
12:00 +21°C° 0.5 mm 10 m/s 751 mmHg 64%
13:00 +19°C° 0.5 mm 11 m/s 751 mmHg 65%
14:00 +19°C° 0.6 mm 10 m/s 751 mmHg 62%
15:00 +19°C° 0.6 mm 10 m/s 751 mmHg 59%
16:00 +21°C° 0.6 mm 10 m/s 751 mmHg 57%
17:00 +19°C° 0.1 mm 9 m/s 751 mmHg 58%
18:00 +20°C° 0.1 mm 8 m/s 752 mmHg 60%
19:00 +20°C° 0.1 mm 7 m/s 752 mmHg 62%
20:00 +18°C° 0 mm 7 m/s 753 mmHg 63%
21:00 +18°C° 0 mm 7 m/s 753 mmHg 65%
22:00 +19°C° 0 mm 6 m/s 754 mmHg 66%
23:00 +18°C° 0.1 mm 7 m/s 754 mmHg 68%

Demain, 27 Septembre, Dimanche

Heure Température Précipitation Vent Pression Humidité
00:00 +18°C° 0.1 mm 7 m/s 754 mmHg 69%
01:00 +17°C° 0.1 mm 7 m/s 755 mmHg 70%
02:00 +17°C° 0.1 mm 6 m/s 755 mmHg 71%
03:00 +18°C° 0.1 mm 4 m/s 755 mmHg 72%
04:00 +18°C° 0.1 mm 3 m/s 755 mmHg 73%
05:00 +19°C° 0 mm 4 m/s 756 mmHg 71%
06:00 +19°C° 0 mm 4 m/s 756 mmHg 69%
07:00 +19°C° 0 mm 4 m/s 756 mmHg 67%
08:00 +21°C° 0.1 mm 6 m/s 757 mmHg 62%
09:00 +22°C° 0.1 mm 7 m/s 757 mmHg 58%
10:00 +23°C° 0.1 mm 9 m/s 758 mmHg 53%
11:00 +23°C° 0.1 mm 9 m/s 758 mmHg 53%
12:00 +24°C° 0.1 mm 10 m/s 758 mmHg 53%
13:00 +24°C° 0.1 mm 10 m/s 758 mmHg 54%
14:00 +23°C° 0.1 mm 10 m/s 757 mmHg 58%
15:00 +23°C° 0.1 mm 10 m/s 757 mmHg 63%
16:00 +22°C° 0.1 mm 10 m/s 757 mmHg 68%
17:00 +22°C° 0 mm 11 m/s 757 mmHg 70%
18:00 +21°C° 0 mm 11 m/s 757 mmHg 73%
19:00 +19°C° 0 mm 12 m/s 757 mmHg 76%
20:00 +19°C° 0 mm 13 m/s 757 mmHg 76%
21:00 +19°C° 0 mm 13 m/s 757 mmHg 76%
22:00 +19°C° 0 mm 13 m/s 758 mmHg 76%
23:00 +20°C° 1.1 mm 14 m/s 757 mmHg 76%

Après-demain, 28 Septembre, Lundi

Heure Température Précipitation Vent Pression Humidité
00:00 +20°C° 1.1 mm 14 m/s 757 mmHg 76%
01:00 +20°C° 1.1 mm 15 m/s 757 mmHg 76%
02:00 +20°C° 3.1 mm 13 m/s 757 mmHg 81%
03:00 +21°C° 3.1 mm 12 m/s 757 mmHg 85%
04:00 +19°C° 3.1 mm 11 m/s 757 mmHg 89%
05:00 +21°C° 1.1 mm 10 m/s 758 mmHg 88%
06:00 +21°C° 1.1 mm 9 m/s 758 mmHg 86%
07:00 +21°C° 1.1 mm 8 m/s 758 mmHg 85%
08:00 +22°C° 0.6 mm 8 m/s 759 mmHg 81%
09:00 +23°C° 0.6 mm 8 m/s 759 mmHg 77%
10:00 +23°C° 0.6 mm 8 m/s 759 mmHg 73%
11:00 +23°C° 0.6 mm 8 m/s 759 mmHg 71%
12:00 +24°C° 0.6 mm 8 m/s 759 mmHg 70%
13:00 +24°C° 0.6 mm 7 m/s 759 mmHg 69%
14:00 +23°C° 1.1 mm 7 m/s 759 mmHg 71%
15:00 +23°C° 1.1 mm 6 m/s 759 mmHg 73%
16:00 +22°C° 1.1 mm 6 m/s 758 mmHg 76%
17:00 +22°C° 0.7 mm 5 m/s 759 mmHg 77%
18:00 +21°C° 0.7 mm 5 m/s 759 mmHg 78%
19:00 +20°C° 0.7 mm 5 m/s 760 mmHg 80%
20:00 +20°C° 0.7 mm 5 m/s 760 mmHg 79%
21:00 +20°C° 0.7 mm 5 m/s 760 mmHg 78%
22:00 +20°C° 0.7 mm 4 m/s 760 mmHg 78%
23:00 +20°C° 0.6 mm 4 m/s 760 mmHg 76%

29 Septembre, Mardi

Heure Température Précipitation Vent Pression Humidité
00:00 +20°C° 0.6 mm 4 m/s 760 mmHg 74%
01:00 +20°C° 0.6 mm 4 m/s 760 mmHg 72%
02:00 +20°C° 0.6 mm 3 m/s 760 mmHg 74%
03:00 +19°C° 0.6 mm 3 m/s 760 mmHg 75%
04:00 +19°C° 0.6 mm 2 m/s 760 mmHg 77%
05:00 +20°C° 0.3 mm 2 m/s 760 mmHg 75%
06:00 +20°C° 0.3 mm 3 m/s 760 mmHg 73%
07:00 +21°C° 0.3 mm 4 m/s 760 mmHg 71%
08:00 +21°C° 0.3 mm 4 m/s 760 mmHg 68%
09:00 +22°C° 0.3 mm 3 m/s 760 mmHg 66%
10:00 +24°C° 0.3 mm 3 m/s 760 mmHg 63%
11:00 +24°C° 0 mm 3 m/s 760 mmHg 61%
12:00 +24°C° 0 mm 3 m/s 760 mmHg 60%
13:00 +25°C° 0 mm 3 m/s 761 mmHg 58%
14:00 +23°C° 0 mm 4 m/s 760 mmHg 60%
15:00 +23°C° 0 mm 5 m/s 760 mmHg 62%
16:00 +22°C° 0 mm 5 m/s 760 mmHg 64%
17:00 +21°C° 0 mm 5 m/s 761 mmHg 67%
18:00 +20°C° 0 mm 5 m/s 761 mmHg 71%
19:00 +20°C° 0 mm 5 m/s 761 mmHg 74%
20:00 +19°C° 0 mm 5 m/s 761 mmHg 74%
21:00 +19°C° 0 mm 4 m/s 761 mmHg 74%
22:00 +19°C° 0 mm 4 m/s 761 mmHg 75%
23:00 +18°C° 0 mm 4 m/s 761 mmHg 73%

30 Septembre, Mercredi

Heure Température Précipitation Vent Pression Humidité
00:00 +18°C° 0 mm 3 m/s 761 mmHg 71%
01:00 +18°C° 0 mm 3 m/s 761 mmHg 69%
02:00 +18°C° 0 mm 3 m/s 761 mmHg 69%
03:00 +18°C° 0 mm 3 m/s 760 mmHg 68%
04:00 +18°C° 0 mm 3 m/s 760 mmHg 68%
05:00 +18°C° 0 mm 3 m/s 760 mmHg 67%
06:00 +19°C° 0 mm 3 m/s 760 mmHg 66%
07:00 +19°C° 0 mm 3 m/s 760 mmHg 65%
08:00 +20°C° 0 mm 3 m/s 760 mmHg 61%
09:00 +21°C° 0 mm 4 m/s 760 mmHg 57%
10:00 +22°C° 0 mm 4 m/s 760 mmHg 53%
11:00 +23°C° 0 mm 4 m/s 759 mmHg 53%
12:00 +23°C° 0 mm 5 m/s 759 mmHg 52%
13:00 +25°C° 0 mm 5 m/s 759 mmHg 51%
14:00 +25°C° 0 mm 5 m/s 759 mmHg 53%
15:00 +23°C° 0 mm 5 m/s 758 mmHg 56%
16:00 +23°C° 0 mm 5 m/s 758 mmHg 58%
17:00 +22°C° 0 mm 5 m/s 758 mmHg 62%
18:00 +21°C° 0 mm 4 m/s 758 mmHg 66%
19:00 +20°C° 0 mm 4 m/s 758 mmHg 69%
20:00 +19°C° 0 mm 4 m/s 758 mmHg 70%
21:00 +19°C° 0 mm 3 m/s 758 mmHg 71%
22:00 +19°C° 0 mm 3 m/s 758 mmHg 72%
23:00 +18°C° 0 mm 3 m/s 758 mmHg 72%

1 Octobre, Jeudi

Heure Température Précipitation Vent Pression Humidité
00:00 +18°C° 0 mm 3 m/s 758 mmHg 72%
01:00 +18°C° 0 mm 3 m/s 757 mmHg 72%
02:00 +18°C° 0 mm 3 m/s 757 mmHg 73%
03:00 +18°C° 0 mm 3 m/s 757 mmHg 74%
04:00 +17°C° 0 mm 3 m/s 757 mmHg 75%
05:00 +18°C° 0 mm 2 m/s 757 mmHg 72%
06:00 +18°C° 0 mm 2 m/s 757 mmHg 69%
07:00 +19°C° 0 mm 2 m/s 757 mmHg 67%
08:00 +20°C° 0 mm 2 m/s 757 mmHg 60%
09:00 +23°C° 0 mm 1 m/s 757 mmHg 53%
10:00 +24°C° 0 mm 1 m/s 757 mmHg 46%
11:00 +25°C° 0 mm 1 m/s 757 mmHg 46%
12:00 +25°C° 0 mm 1 m/s 756 mmHg 46%
13:00 +25°C° 0 mm 2 m/s 756 mmHg 46%
14:00 +25°C° 0 mm 2 m/s 756 mmHg 48%
15:00 +25°C° 0 mm 2 m/s 756 mmHg 51%
16:00 +24°C° 0 mm 2 m/s 756 mmHg 53%
17:00 +22°C° 0 mm 3 m/s 756 mmHg 57%
18:00 +21°C° 0 mm 3 m/s 756 mmHg 61%
19:00 +21°C° 0 mm 3 m/s 756 mmHg 65%
20:00 +20°C° 0 mm 4 m/s 756 mmHg 66%
21:00 +20°C° 0 mm 4 m/s 756 mmHg 68%
22:00 +20°C° 0 mm 5 m/s 757 mmHg 69%
23:00 +20°C° 0.1 mm 6 m/s 756 mmHg 69%
Voir plus